Tracking 19832 objects as of 24-Aug-2019
HD Live streaming from Space Station
objects crossing your sky now

BREEZE-M R/B

Track BREEZE-M R/B now!


NORAD ID: 39123
Int'l Code: 2013-012B
Perigee: 5,350.4 km
Apogee: 34,188.4 km
Inclination: 17.8 °
Period: 701.0 minutes
Semi major axis: 26140 km
RCS: 0.6198 m2 (medium)
Launch date: March 26, 2013
Source: Commonwealth of Independent States (former USSR) (CIS)
Launch site: TYURATAM MISSILE AND SPACE COMPLEX (TTMTR)

Note: This is a ROCKET BODY
aabbcc
Your satellite tracking list
Your tracking list is empty




NASA's NSSDC Master Catalog

Two Line Element Set (TLE):
1 39123U 13012B   19235.12126006  .00000051  00000-0  00000+0 0  9998
2 39123  17.7994 143.0001 5515976 261.7405  35.4247  2.05415887 48084
Source of the keplerian elements: AFSPC